ARIANE 1 DEB, 40780

Orbit data source: Space-Track

ARIANE 1 DEB, 40780 is space debris in HEO originally from a launch on Mon, 24 Dec 1979 UTC launched from the French Guiana (FRGUI). Debris objects in space refer to the collection of defunct objects orbiting the Earth. Examples of debris include non-operational satellites, rocket bodies, and fragments generated from explosions, collisions, or faulty payload assembly.

Loading next visibility...
Identifier
40780, 1979-104AH
Orbit
HEO
Country
Flag of FRFR
Related business
Manufacturer
Unknown
Mission
Spacecraft
Bus & Motor
Unknown
Mass
Unknown
Launch date (UTC)
1979-12-24 (46 years ago)
Launch vehicle
Unknown
Launch site
French Guiana (FRGUI)
Object type
Payload
Rocket body
Debris
Shape & HBR
Unknown shape, 0.1 m
Radar Cross Section
Small (<0.1 m²)

Expand to show TLE details & history
Last TLE update: 4 days ago

TLE from 4 days ago
0 ARIANE 1 DEB
1 40780U 79104AH  25306.51985906  .00000183  00000-0  90490-3 0  9996
2 40780  19.2161  66.6115 5930132 127.8456 302.2103  3.90304440321950
Epoch: 2025-11-02T12:28Z
TLE epoch observation values (Epoch: 2025-11-02T12:28:35.822Z)
Latitude
0.0001°
Longitude
-162.59323°
Altitude
10,988.637 km
Speed
4.745 km/s
True Right ascension
04h 26m 21s
True Declination
0° 00' 00"
Sunlit
Object was in daylight at epoch
Visualization orbit readout
Latitude
Unknown
Longitude
Unknown
Altitude
Unknown
Speed
Unknown
Apparent Right ascension
Unknown
Apparent Declination
Unknown
Sunlit
N/A
Visualization observer readout
Local Sidereal Time
18:42:20
Azimuth
Unknown
Elevation
Unknown
Doppler factor
Unknown
Orbital elements
Apogee altitude
20,773.218 km
Perigee altitude
558.556 km
Semi-major axis
17,044.024 km
Eccentricity
0.59301
Inclination
19.2161°
RAAN
66.6115°
Arg. of periapsis
127.8456°
True anomaly
232.23161°
Mean anomaly
302.2103°
Eccentric anomaly
268.24901°
Mean motion
0.9754 °/min
Orbital period
369.08 mins
BSTAR
0.0009049
Loading maneuver chart data...
Computing Atmospheric mass density...
Loading historical data...
Loading historical data...
Loading historical data...
Loading historical data...
Loading historical data...
Loading historical data...
Loading historical data...

Documentation

Showing up to 5 results
|